Location: Nebraska Star Party
(42.6000°N, 100.8833°W)
Time: 11:29:20
(UTC-06:00)

Amateur Radio Satellites - All Passes

Search period start: 19 December 2014 10:59
Search period end: 20 December 2014 10:59
Location: Nebraska Star Party, 42.6000°N, 100.8833°W

Satellite Date Start Highest point End Downlink Frequencies (MHz)
Time Altitude Azimuth
AAUSAT CUBESAT 2 19 Dec 10:59:35 11:03:04 25° 292° (WNW) 11:06:31 437.432
ZACube-1 19 Dec 10:59:40 11:04:13 78° 102° (ESE) 11:08:48 437.345
POLYITAN 1 19 Dec 11:02:38 11:06:49 67° 258° (WSW) 11:11:02 437.675
NANOSAT C BR1 19 Dec 11:06:14 11:10:24 62° 259° (W) 11:14:35 145.865
CANX-2 19 Dec 11:08:58 11:11:05 14° 298° (WNW) 11:13:12 2200.000
GOMX 1 19 Dec 11:19:17 11:22:20 17° 295° (WNW) 11:25:30 467.674
QB50P1 19 Dec 11:20:36 11:24:35 42° 261° (W) 11:28:37 145.935-145.965
DANDE 19 Dec 11:21:44 11:24:49 29° 292° (WNW) 11:28:47 436.750
UWE-3 19 Dec 11:23:58 11:28:23 51° 287° (WNW) 11:32:53 435.000/436.395/437.385
FUNcube-1 19 Dec 11:27:00 11:31:25 55° 287° (WNW) 11:35:53 145.935
O/OREOS (USA 219) 19 Dec 11:29:38 11:34:09 82° 249° (WSW) 11:38:41 437.305
TIGRISAT 19 Dec 11:32:29 11:35:56 23° 266° (W) 11:39:29 435.000
COMPASS 1 19 Dec 11:36:14 11:36:57 10° 299° (WNW) 11:37:40 437.405
AISAT 19 Dec 11:38:46 11:43:13 75° 285° (WNW) 11:47:38 437.250
DX 1 19 Dec 11:45:02 11:48:28 23° 294° (WNW) 11:51:54 434.975-435.025
HO-68 19 Dec 11:47:04 11:51:57 20° 306° (NW) 11:56:49 435.675
POPSAT HIP 1 19 Dec 11:50:06 11:53:18 21° 266° (W) 11:56:31 437.405
CUBEBUG 1 19 Dec 11:50:10 11:54:25 54° 100° (E) 11:58:39 437.445
DOVE 4 19 Dec 11:52:49 11:54:20 11° 299° (WNW) 11:55:53 437.250
DELFI C3 19 Dec 12:00:17 12:02:20 14° 297° (WNW) 12:04:22 145.870
50 SAT 19 Dec 12:00:53 12:04:52 46° 288° (WNW) 12:08:50 437.505
UNISAT 6 19 Dec 12:03:13 12:04:40 11° 271° (W) 12:06:08 437.425
HUMSAT D 19 Dec 12:12:04 12:15:50 30° 291° (WNW) 12:19:38 437.325/437.525
Oscar 11 19 Dec 12:12:48 12:13:16 10° 300° (WNW) 12:13:44 145.826/435.025
UKube-1 19 Dec 12:19:18 12:20:50 12° 300° (WNW) 12:22:22 .
CUBEBUG 2 19 Dec 12:20:55 12:23:14 14° 298° (WNW) 12:25:34 437.445
DUCHIFAT 1 19 Dec 12:22:04 12:22:23 10° 271° (W) 12:22:43 145.980
RS-15 19 Dec 12:24:59 12:35:39 62° 115° (ESE) 12:46:20 29.354- 29.394
BUGSAT 1 19 Dec 12:28:00 12:28:18 10° 270° (W) 12:28:35 437.445
ESTCUBE 1 19 Dec 12:30:16 12:34:39 54° 287° (WNW) 12:39:01 437.505/2401.250
VELOX 1 19 Dec 12:33:44 12:37:07 22° 295° (WNW) 12:40:29 145.980
ZACube-1 19 Dec 12:38:13 12:39:58 12° 299° (WNW) 12:41:44 437.345
YUBILEINY 19 Dec 12:38:39 12:47:00 54° 270° (W) 12:55:20 435.215
Oscar 19 19 Dec 13:03:27 13:08:28 57° 72° (ENE) 13:13:32 437.125/150
SPROUT 19 Dec 13:03:48 13:08:08 82° 103° (ESE) 13:12:26 437.525
TISAT 1 19 Dec 13:05:07 13:09:22 90° 287° (WNW) 13:13:36 437.305
Gurwin Techsat 1B 19 Dec 13:05:33 13:08:36 16° 59° (ENE) 13:11:40 435.225
SWISSCUBE 19 Dec 13:13:55 13:17:13 18° 92° (E) 13:20:30 437.505
ITUPSAT 1 19 Dec 13:14:00 13:17:04 17° 92° (E) 13:20:06 437.325
BEESAT 3 19 Dec 13:14:07 13:16:34 16° 110° (ESE) 13:19:02 437.485
ITAMSAT 1 19 Dec 13:16:49 13:21:17 30° 66° (ENE) 13:25:45 435.822/435.867
CUBEBUG 1 19 Dec 13:27:51 13:30:22 15° 297° (WNW) 13:32:52 437.445
BEESAT 19 Dec 13:38:33 13:42:45 30° 96° (E) 13:46:54 436.000
ISS 19 Dec 13:42:12 13:44:00 14° 131° (SE) 13:45:48 145.825
BEESAT 2 19 Dec 13:51:14 13:54:57 34° 116° (ESE) 13:58:44 435.950
HORYU 2 19 Dec 13:58:07 14:00:48 16° 62° (ENE) 14:03:29 437.375
AO-7 19 Dec 14:01:40 14:07:23 21° 49° (NE) 14:13:07 29.400- 29.500
M-CUBED/EXP-1 PRIME 19 Dec 14:06:38 14:09:54 20° 97° (E) 14:12:58 437.505
RS-15 19 Dec 14:38:11 14:48:28 45° 320° (NW) 14:58:56 29.354- 29.394
PCSat 19 Dec 14:42:13 14:47:36 73° 117° (ESE) 14:53:01 145.827
Gurwin Techsat 1B 19 Dec 14:42:37 14:47:55 77° 257° (WSW) 14:53:15 435.225
SPROUT 19 Dec 14:42:48 14:43:33 10° 300° (WNW) 14:44:19 437.525
Oscar 19 19 Dec 14:44:46 14:48:11 18° 269° (W) 14:51:37 437.125/150
AIST 2 19 Dec 14:49:23 14:53:34 65° 120° (ESE) 14:57:50 435.215
BEESAT 3 19 Dec 14:50:18 14:54:19 52° 307° (NW) 14:58:24 437.485
ITUPSAT 1 19 Dec 14:50:37 14:55:17 53° 288° (WNW) 14:59:54 437.325
SWISSCUBE 19 Dec 14:50:45 14:55:20 48° 289° (WNW) 14:59:54 437.505
ITAMSAT 1 19 Dec 14:55:57 15:00:40 35° 263° (W) 15:05:24 435.822/435.867
STARS 19 Dec 15:02:52 15:06:49 31° 97° (E) 15:10:44 437.465
KKS-1 19 Dec 15:03:28 15:07:47 46° 99° (E) 15:12:05 437.445
AUBIESAT-1 19 Dec 15:16:03 15:20:29 76° 290° (WNW) 15:24:30 437.475
BEESAT 19 Dec 15:16:23 15:20:32 30° 293° (WNW) 15:24:39 436.000
ISS 19 Dec 15:16:54 15:20:12 74° 327° (NNW) 15:23:30 145.825
BEESAT 2 19 Dec 15:29:42 15:33:15 27° 314° (NW) 15:36:50 435.950
HORYU 2 19 Dec 15:32:38 15:37:00 56° 259° (W) 15:41:26 437.375
JAS-2 19 Dec 15:34:19 15:40:13 26° 62° (ENE) 15:45:44 435.910
M-CUBED/EXP-1 PRIME 19 Dec 15:40:57 15:45:06 38° 296° (WNW) 15:48:54 437.505
AO-7 19 Dec 15:50:40 15:58:59 83° 70° (ENE) 16:07:23 29.400- 29.500
PCSat 19 Dec 16:27:33 16:31:35 21° 317° (NW) 16:35:38 145.827
AIST 2 19 Dec 16:29:42 16:32:37 18° 319° (NW) 16:35:35 435.215
GONETS M04 19 Dec 16:36:42 16:44:52 41° 72° (ENE) 16:52:56
CUTE-I 19 Dec 16:37:59 16:40:38 14° 58° (ENE) 16:43:16 437.470
STARS 19 Dec 16:39:30 16:43:10 26° 293° (WNW) 16:46:51 437.465
KKS-1 19 Dec 16:41:01 16:44:05 18° 296° (WNW) 16:47:08 437.445
AIST 1 19 Dec 16:52:02 16:56:11 44° 93° (E) 17:00:20
ISS 19 Dec 16:54:38 16:57:12 21° 346° (NNW) 16:59:47 145.825
RS-15 19 Dec 16:56:28 17:04:43 23° 353° (N) 17:13:08 29.354- 29.394
JAS-2 19 Dec 17:17:03 17:24:44 71° 258° (WSW) 17:31:48 435.910
MOZHAYETS 4 19 Dec 17:40:28 17:45:07 72° 102° (ESE) 17:49:42
Cubesat XI-IV 19 Dec 17:41:16 17:46:22 49° 70° (ENE) 17:51:30 437.490
AO-7 19 Dec 17:46:44 17:52:39 21° 269° (W) 17:58:38 29.400- 29.500
MaSat-1 19 Dec 18:11:33 18:12:46 13° 56° (NE) 18:14:01 437.345
CUTE-I 19 Dec 18:14:38 18:19:57 86° 256° (WSW) 18:25:19 437.470
AIST 1 19 Dec 18:31:13 18:34:05 17° 290° (WNW) 18:36:56
ISS 19 Dec 18:32:20 18:34:39 18° 7° (N) 18:36:58 145.825
GONETS M04 19 Dec 18:33:34 18:41:45 46° 272° (W) 18:49:51
HO-68 19 Dec 18:43:33 18:47:17 15° 50° (NE) 18:51:02 435.675
STRAND 1 19 Dec 18:43:54 18:47:48 22° 93° (E) 18:51:41 437.568
PRISM 19 Dec 18:50:11 18:54:18 57° 101° (E) 18:58:21 437.425
CUBESAT XI-V 19 Dec 19:00:28 19:04:44 36° 97° (E) 19:08:57 437.345
JAS-2 19 Dec 19:07:45 19:10:39 12° 274° (W) 19:13:30 435.910
RS-15 19 Dec 19:12:21 19:21:56 31° 28° (NNE) 19:31:49 29.354- 29.394
MOZHAYETS 4 19 Dec 19:19:33 19:21:44 13° 299° (WNW) 19:23:54
Cubesat XI-IV 19 Dec 19:22:39 19:26:43 22° 267° (W) 19:30:48 437.490
CUTE 1.7 + AOD 2 19 Dec 19:24:36 19:24:58 10° 60° (ENE) 19:25:19 437.475
CUSAT 1 19 Dec 19:30:44 19:36:03 20° 64° (ENE) 19:41:47 437.405
MaSat-1 19 Dec 19:44:22 19:46:05 17° 250° (WSW) 19:47:52 437.345
CUTE-I 19 Dec 19:59:46 20:00:46 11° 273° (W) 20:01:46 437.470
ISS 19 Dec 20:08:44 20:11:52 41° 27° (NNE) 20:15:00 145.825
AAUSAT CUBESAT 2 19 Dec 20:16:13 20:19:33 23° 67° (ENE) 20:22:54 437.432
DANDE 19 Dec 20:16:18 20:23:02 35° 71° (ENE) 20:30:39 436.750
CINEMA 3 19 Dec 20:17:51 20:19:41 13° 62° (ENE) 20:21:33 145.822/145.860
BRITE-PL 19 Dec 20:18:05 20:21:58 39° 71° (ENE) 20:25:50 437.365/2234.400
STRAND 1 19 Dec 20:22:21 20:27:12 46° 290° (WNW) 20:32:02 437.568
CANX-2 19 Dec 20:25:09 20:29:15 48° 73° (ENE) 20:33:24 2200.000
HO-68 19 Dec 20:26:38 20:33:45 71° 70° (ENE) 20:40:54 435.675
PRISM 19 Dec 20:27:16 20:29:21 14° 298° (WNW) 20:31:25 437.425
CUBESAT XI-V 19 Dec 20:38:19 20:41:58 24° 294° (WNW) 20:45:36 437.345
UWE-3 19 Dec 20:47:55 20:50:12 14° 63° (ENE) 20:52:30 435.000/436.395/437.385
GOMX 1 19 Dec 20:49:40 20:53:45 62° 74° (ENE) 20:57:53 467.674
COMPASS 1 19 Dec 20:49:49 20:53:58 60° 74° (ENE) 20:58:10 437.405
FUNcube-1 19 Dec 20:50:15 20:52:08 13° 62° (ENE) 20:54:01 145.935
SEEDS 19 Dec 20:53:52 20:58:06 80° 76° (ENE) 21:02:24 437.485
CUTE 1.7 + AOD 2 19 Dec 20:55:56 21:00:12 84° 257° (WSW) 21:04:31 437.475
AISAT 19 Dec 21:04:22 21:05:59 12° 60° (ENE) 21:07:35 437.250
DX 1 19 Dec 21:04:58 21:08:51 33° 69° (ENE) 21:12:44 434.975-435.025
SO-50 19 Dec 21:06:33 21:10:08 23° 112° (ESE) 21:13:48 436.795
CUSAT 1 19 Dec 21:12:18 21:19:57 85° 80° (E) 21:28:30 437.405
DELFI C3 19 Dec 21:12:46 21:16:36 39° 71° (ENE) 21:20:28 145.870
50 SAT 19 Dec 21:17:41 21:19:00 11° 62° (ENE) 21:20:19 437.505
DOVE 4 19 Dec 21:19:38 21:23:46 83° 257° (WSW) 21:27:59 437.250
RS-15 19 Dec 21:24:58 21:36:18 81° 55° (NE) 21:48:07 29.354- 29.394
Oscar 11 19 Dec 21:28:44 21:33:03 73° 75° (ENE) 21:37:24 145.826/435.025
HUMSAT D 19 Dec 21:30:11 21:33:12 20° 66° (ENE) 21:36:16 437.325/437.525
BEESAT 3 19 Dec 21:32:11 21:34:54 17° 40° (NE) 21:37:36 437.485
UKube-1 19 Dec 21:36:38 21:40:56 70° 74° (ENE) 21:45:15 .
CUBEBUG 2 19 Dec 21:41:55 21:46:01 62° 74° (ENE) 21:50:15 437.445
ISS 19 Dec 21:45:32 21:48:20 27° 224° (SW) 21:51:08 145.825
PCSat 19 Dec 21:47:36 21:50:26 14° 37° (NE) 21:53:15 145.827
AAUSAT CUBESAT 2 19 Dec 21:51:18 21:55:04 31° 264° (W) 21:58:51 437.432
CINEMA 3 19 Dec 21:52:16 21:56:22 61° 259° (W) 22:00:35 145.822/145.860
VELOX 1 19 Dec 21:55:20 21:59:23 37° 70° (ENE) 22:03:28 145.980
ESTCUBE 1 19 Dec 21:55:43 21:58:35 17° 63° (ENE) 22:01:27 437.505/2401.250
ZACube-1 19 Dec 21:56:43 22:00:51 66° 75° (ENE) 22:05:05 437.345
BRITE-PL 19 Dec 21:58:00 22:00:43 17° 268° (W) 22:03:24 437.365/2234.400
DANDE 19 Dec 21:59:21 22:06:44 58° 266° (W) 22:15:08 436.750
CANX-2 19 Dec 22:02:57 22:05:28 15° 269° (W) 22:07:59 2200.000
BEESAT 2 19 Dec 22:10:33 22:14:16 30° 47° (NE) 22:17:57 435.950
UNISAT 6 19 Dec 22:15:55 22:18:32 15° 90° (E) 22:21:10 437.425
HO-68 19 Dec 22:16:40 22:22:02 22° 268° (W) 22:27:27 435.675
UWE-3 19 Dec 22:22:12 22:26:17 54° 260° (W) 22:30:28 435.000/436.395/437.385
FUNcube-1 19 Dec 22:23:49 22:27:56 62° 259° (W) 22:32:10 145.935
COMPASS 1 19 Dec 22:28:28 22:30:05 12° 271° (W) 22:31:43 437.405
DUCHIFAT 1 19 Dec 22:29:08 22:30:07 11° 89° (E) 22:31:07 145.980
GOMX 1 19 Dec 22:31:35 22:32:22 10° 271° (W) 22:33:09 467.674
AISAT 19 Dec 22:37:34 22:41:59 76° 257° (WSW) 22:46:25 437.250
QB50P2 19 Dec 22:40:35 22:43:09 15° 92° (E) 22:45:42 145.880/145.840
DX 1 19 Dec 22:41:39 22:45:08 23° 265° (W) 22:48:37 434.975-435.025
SO-50 19 Dec 22:46:03 22:50:24 43° 310° (NW) 22:54:54 436.795
ANTELSAT 19 Dec 22:46:32 22:50:42 30° 96° (E) 22:54:50 437.575/2403.000
CUBEBUG 1 19 Dec 22:47:10 22:51:23 49° 72° (ENE) 22:55:35 437.445
POLYITAN 1 19 Dec 22:48:39 22:51:43 19° 93° (E) 22:54:48 437.675
DELFI C3 19 Dec 22:49:16 22:52:02 17° 268° (W) 22:54:49 145.870
50 SAT 19 Dec 22:49:41 22:53:40 65° 259° (W) 22:57:42 437.505
NANOSAT C BR1 19 Dec 22:51:39 22:54:49 20° 94° (E) 22:57:58 145.865
CUSAT 1 19 Dec 22:56:49 23:02:23 22° 276° (W) 23:08:21 437.405
HUMSAT D 19 Dec 23:04:58 23:08:46 36° 263° (W) 23:12:38 437.325/437.525
QB50P1 19 Dec 23:05:29 23:09:10 28° 96° (E) 23:12:52 145.935-145.965
Oscar 11 19 Dec 23:09:07 23:09:43 10° 272° (W) 23:10:19 145.826/435.025
BEESAT 3 19 Dec 23:09:23 23:13:33 69° 239° (WSW) 23:17:38 437.485
AIST 2 19 Dec 23:10:49 23:15:04 53° 53° (NE) 23:19:13 435.215
UKube-1 19 Dec 23:16:30 23:17:33 11° 270° (W) 23:18:36 .
CUBEBUG 2 19 Dec 23:21:53 23:23:12 11° 271° (W) 23:24:31 437.445
TIGRISAT 19 Dec 23:22:18 23:26:59 69° 102° (ESE) 23:31:41 435.000
PCSat 19 Dec 23:29:29 23:34:55 67° 58° (ENE) 23:40:17 145.827
ESTCUBE 1 19 Dec 23:30:35 23:35:02 54° 260° (W) 23:39:29 437.505/2401.250
VELOX 1 19 Dec 23:32:45 23:36:05 21° 266° (W) 23:39:26 145.980
POPSAT HIP 1 19 Dec 23:33:41 23:37:54 58° 101° (E) 23:42:07 437.405
ZACube-1 19 Dec 23:36:45 23:37:43 11° 271° (W) 23:38:41 437.345
RS-15 19 Dec 23:38:30 23:47:32 29° 256° (WSW) 23:56:55 29.354- 29.394
YUBILEINY 19 Dec 23:44:11 23:52:00 38° 86° (E) 23:59:47 435.215
DANDE 19 Dec 23:47:23 23:49:02 11° 281° (WNW) 23:50:43 436.750
BEESAT 2 19 Dec 23:48:49 23:52:30 30° 245° (WSW) 23:56:07 435.950
UNISAT 6 19 Dec 23:51:03 23:55:42 61° 287° (WNW) 00:00:21 437.425
TISAT 1 19 Dec 23:58:18 00:02:29 75° 75° (ENE) 00:06:42 437.305
SPROUT 19 Dec 23:58:41 00:02:56 68° 75° (ENE) 00:07:11 437.525
DUCHIFAT 1 20 Dec 00:02:12 00:06:25 68° 285° (WNW) 00:10:39 145.980
BUGSAT 1 20 Dec 00:05:33 00:09:36 76° 285° (WNW) 00:13:39 437.445
QB50P2 20 Dec 00:15:12 00:19:19 47° 288° (WNW) 00:23:25 145.880/145.840
SWISSCUBE 20 Dec 00:21:19 00:25:09 24° 65° (ENE) 00:28:59 437.505
ITUPSAT 1 20 Dec 00:21:36 00:25:18 23° 64° (ENE) 00:28:59 437.325
ANTELSAT 20 Dec 00:23:20 00:27:25 30° 292° (WNW) 00:31:31 437.575/2403.000
POLYITAN 1 20 Dec 00:23:49 00:27:48 39° 289° (WNW) 00:31:47 437.675
CUBEBUG 1 20 Dec 00:25:26 00:28:01 15° 268° (W) 00:30:37 437.445
NANOSAT C BR1 20 Dec 00:26:53 00:30:48 36° 290° (WNW) 00:34:42 145.865
AUBIESAT-1 20 Dec 00:31:36 00:35:09 21° 58° (ENE) 00:38:44 437.475
QB50P1 20 Dec 00:41:26 00:44:58 26° 292° (WNW) 00:48:31 145.935-145.965
BEESAT 20 Dec 00:45:48 00:50:12 38° 69° (ENE) 00:54:38 436.000
AIST 2 20 Dec 00:50:35 00:53:15 16° 250° (WSW) 00:55:53 435.215
M-CUBED/EXP-1 PRIME 20 Dec 00:55:31 00:59:55 36° 64° (ENE) 01:04:24 437.505
TIGRISAT 20 Dec 01:00:39 01:03:11 15° 298° (WNW) 01:05:43 435.000
POPSAT HIP 1 20 Dec 01:11:07 01:13:20 14° 297° (WNW) 01:15:32 437.405
PCSat 20 Dec 01:14:14 01:17:44 18° 255° (WSW) 01:21:13 145.827
Oscar 19 20 Dec 01:15:14 01:18:56 19° 92° (E) 01:22:36 437.125/150
SPROUT 20 Dec 01:38:30 01:39:28 11° 271° (W) 01:40:26 437.525
YUBILEINY 20 Dec 01:40:12 01:48:34 48° 286° (WNW) 01:56:57 435.215
O/OREOS (USA 219) 20 Dec 01:42:25 01:46:52 79° 293° (WNW) 01:51:21 437.305
SWISSCUBE 20 Dec 01:58:19 02:02:48 39° 262° (W) 02:07:18 437.505
ITUPSAT 1 20 Dec 01:58:21 02:02:55 43° 261° (W) 02:07:30 437.325
STARS 20 Dec 02:00:59 02:04:47 30° 68° (ENE) 02:08:38 437.465
KKS-1 20 Dec 02:02:29 02:06:43 46° 71° (ENE) 02:10:58 437.445
AUBIESAT-1 20 Dec 02:04:57 02:09:40 55° 255° (WSW) 02:14:30 437.475
BEESAT 20 Dec 02:24:17 02:28:09 24° 266° (W) 02:32:01 436.000
M-CUBED/EXP-1 PRIME 20 Dec 02:30:43 02:34:54 29° 260° (W) 02:39:11 437.505
Oscar 19 20 Dec 02:53:31 02:58:35 54° 289° (WNW) 03:03:37 437.125/150
Gurwin Techsat 1B 20 Dec 02:58:17 03:03:18 41° 98° (E) 03:08:16 435.225
AIST 1 20 Dec 03:00:23 03:02:08 12° 67° (ENE) 03:03:53
ITAMSAT 1 20 Dec 03:07:26 03:12:37 79° 103° (ESE) 03:17:48 435.822/435.867
HORYU 2 20 Dec 03:23:53 03:27:43 26° 95° (E) 03:31:31 437.375
O/OREOS (USA 219) 20 Dec 03:26:43 03:27:04 10° 313° (NW) 03:27:26 437.305
STARS 20 Dec 03:37:37 03:41:15 26° 265° (W) 03:44:56 437.465
KKS-1 20 Dec 03:40:42 03:43:36 17° 268° (W) 03:46:30 437.445
AO-7 20 Dec 03:52:22 03:59:06 26° 94° (E) 04:05:46 29.400- 29.500
VERMONT LUNAR 20 Dec 04:23:06 04:26:19 33° 160° (SSE) 04:29:32 437.305
JAS-2 20 Dec 04:29:27 04:31:48 13° 86° (E) 04:34:04 435.910
PHONESAT 2.4 20 Dec 04:33:47 04:36:58 29° 158° (SSE) 04:40:09 2401.200-2431.200
AIST 1 20 Dec 04:36:01 04:40:14 59° 265° (W) 04:44:25
Gurwin Techsat 1B 20 Dec 04:38:39 04:43:03 27° 295° (WNW) 04:47:27 435.225
MOZHAYETS 4 20 Dec 04:42:58 04:47:35 73° 75° (ENE) 04:52:15
ITAMSAT 1 20 Dec 04:48:40 04:51:27 15° 301° (WNW) 04:54:14 435.822/435.867
HORYU 2 20 Dec 05:00:23 05:04:22 31° 292° (WNW) 05:08:20 437.375
SO-50 20 Dec 05:36:26 05:40:47 31° 46° (NE) 05:45:08 436.795
GONETS M04 20 Dec 05:38:26 05:46:40 46° 88° (E) 05:54:54
PRISM 20 Dec 05:41:30 05:45:34 47° 72° (ENE) 05:49:38 437.425
AO-7 20 Dec 05:44:11 05:52:31 71° 292° (WNW) 06:00:48 29.400- 29.500
Cubesat XI-IV 20 Dec 05:58:50 06:02:26 18° 92° (E) 06:06:01 437.490
STRAND 1 20 Dec 06:00:19 06:04:54 35° 67° (ENE) 06:09:30 437.568
VERMONT LUNAR 20 Dec 06:00:54 06:04:24 62° 177° (S) 06:07:53 437.305
CUBESAT XI-V 20 Dec 06:04:37 06:08:57 39° 70° (ENE) 06:13:17 437.345
PHONESAT 2.4 20 Dec 06:11:47 06:15:22 60° 175° (S) 06:18:57 2401.200-2431.200
JAS-2 20 Dec 06:12:04 06:17:48 78° 286° (WNW) 06:23:02 435.910
MOZHAYETS 4 20 Dec 06:23:40 06:25:19 12° 272° (W) 06:26:58
CUTE-I 20 Dec 06:31:21 06:36:13 35° 97° (E) 06:41:03 437.470
SO-50 20 Dec 07:16:51 07:21:25 40° 244° (WSW) 07:25:59 436.795
PRISM 20 Dec 07:18:49 07:21:20 15° 268° (W) 07:23:52 437.425
GONETS M04 20 Dec 07:35:18 07:43:31 42° 288° (WNW) 07:51:47
Cubesat XI-IV 20 Dec 07:37:41 07:42:54 59° 288° (WNW) 07:48:06 437.490
AO-7 20 Dec 07:38:48 07:43:52 18° 313° (NW) 07:48:55 29.400- 29.500
VERMONT LUNAR 20 Dec 07:39:09 07:42:33 44° 194° (SSW) 07:45:55 437.305
STRAND 1 20 Dec 07:39:40 07:44:05 29° 264° (W) 07:48:33 437.568
CUBESAT XI-V 20 Dec 07:42:54 07:46:31 22° 267° (W) 07:50:08 437.345
PHONESAT 2.4 20 Dec 07:50:22 07:53:54 50° 192° (SSW) 07:57:26 2401.200-2431.200
HO-68 20 Dec 07:57:43 07:59:16 11° 85° (E) 08:00:48 435.675
JAS-2 20 Dec 08:00:03 08:01:45 11° 307° (NW) 08:03:25 435.910
CUTE-I 20 Dec 08:11:34 08:16:11 31° 294° (WNW) 08:20:47 437.470
BRITE-PL 20 Dec 08:22:30 08:24:49 13° 91° (E) 08:27:12 437.365/2234.400
SEEDS 20 Dec 08:39:47 08:41:50 13° 90° (E) 08:43:52 437.485
CUTE 1.7 + AOD 2 20 Dec 08:42:00 08:44:45 16° 91° (E) 08:47:29 437.475
GOMX 1 20 Dec 08:50:40 08:54:05 19° 93° (E) 08:57:38 467.674
MaSat-1 20 Dec 09:03:00 09:04:53 21° 111° (ESE) 09:06:42 437.345
UNISAT 6 20 Dec 09:16:40 09:19:01 14° 62° (ENE) 09:21:23 437.425
Oscar 11 20 Dec 09:17:25 09:19:23 13° 90° (E) 09:21:20 145.826/435.025
DOVE 4 20 Dec 09:17:43 09:21:45 26° 95° (E) 09:25:56 437.250
VERMONT LUNAR 20 Dec 09:18:13 09:20:22 15° 210° (SSW) 09:22:31 437.305
UKube-1 20 Dec 09:26:27 09:27:34 11° 90° (E) 09:28:42 .
PHONESAT 2.4 20 Dec 09:29:31 09:32:09 19° 208° (SSW) 09:34:48 2401.200-2431.200
CUBEBUG 2 20 Dec 09:33:47 09:36:12 14° 90° (E) 09:38:37 437.445
AAUSAT CUBESAT 2 20 Dec 09:33:52 09:37:51 38° 98° (E) 09:41:47 437.432
DANDE 20 Dec 09:34:15 09:36:45 18° 83° (E) 09:39:45 436.750
QB50P2 20 Dec 09:35:26 09:37:37 14° 63° (ENE) 09:39:48 145.880/145.840
HO-68 20 Dec 09:41:04 09:48:13 69° 104° (ESE) 09:55:18 435.675
POLYITAN 1 20 Dec 09:43:30 09:46:13 17° 64° (ENE) 09:48:56 437.675
CANX-2 20 Dec 09:45:42 09:50:03 90° 109° (ESE) 09:54:22 2200.000
NANOSAT C BR1 20 Dec 09:46:00 09:48:48 18° 65° (ENE) 09:51:36 145.865
CINEMA 3 20 Dec 09:46:13 09:50:25 30° 96° (E) 09:54:44 145.822/145.860
ZACube-1 20 Dec 09:46:28 09:48:38 13° 90° (E) 09:50:48 437.345
ANTELSAT 20 Dec 09:46:52 09:50:36 28° 67° (ENE) 09:54:26 437.575/2403.000
YUBILEINY 20 Dec 09:53:37 09:59:30 19° 61° (ENE) 10:05:21 435.215
BRITE-PL 20 Dec 09:59:01 10:03:40 69° 285° (WNW) 10:08:41 437.365/2234.400
QB50P1 20 Dec 09:59:37 10:03:01 24° 67° (ENE) 10:06:26 145.935-145.965
COMPASS 1 20 Dec 10:08:43 10:13:00 76° 284° (WNW) 10:17:14 437.405
UWE-3 20 Dec 10:11:34 10:15:34 29° 96° (E) 10:19:37 435.000/436.395/437.385
FUNcube-1 20 Dec 10:12:04 10:15:47 24° 94° (E) 10:19:30 145.935
O/OREOS (USA 219) 20 Dec 10:12:54 10:16:37 24° 57° (ENE) 10:20:19 437.305
SEEDS 20 Dec 10:13:47 10:18:00 56° 286° (WNW) 10:22:11 437.485
CUTE 1.7 + AOD 2 20 Dec 10:16:46 10:20:54 45° 288° (WNW) 10:25:01 437.475
TIGRISAT 20 Dec 10:21:58 10:26:16 64° 74° (ENE) 10:30:41 435.000
CUSAT 1 20 Dec 10:25:48 10:29:23 85° 280° (W) 10:34:17 437.405
POPSAT HIP 1 20 Dec 10:27:30 10:31:32 47° 72° (ENE) 10:35:36 437.405
DELFI C3 20 Dec 10:27:40 10:31:47 63° 101° (E) 10:35:50 145.870
GOMX 1 20 Dec 10:27:50 10:32:23 49° 287° (WNW) 10:37:14 467.674
DX 1 20 Dec 10:28:23 10:32:39 55° 101° (E) 10:36:54 434.975-435.025
AISAT 20 Dec 10:28:56 10:32:10 20° 93° (E) 10:35:23 437.250
50 SAT 20 Dec 10:30:24 10:33:05 17° 92° (E) 10:35:47 437.505
HUMSAT D 20 Dec 10:48:38 10:52:36 34° 97° (E) 10:56:33 437.325/437.525
